Location: Dumpton Point
(51.3500°N, 1.4433°E)
Time: 04:37:45
(UTC+00:00)

Altair - Pass Details

Date: 06 October 2022
Orbit: 1501 x 1682 km, 47.2° (Epoch: 04 December)

Event Time Altitude Azimuth Distance (km) Brightness Sun altitude
Rises 03:16:11 0° 207° (SSW) 4,728 - -26.1°
Reaches altitude 10° 03:19:35 10° 198° (SSW) 3,773 - -25.6°
Exits shadow 03:21:44 17° 190° (S) 3,241 8.9 -25.3°
Maximum altitude 03:27:47 33° 139° (SE) 2,469 8.7 -24.5°
Drops below altitude 10° 03:36:14 10° 81° (E) 3,904 10.7 -23.3°
Sets 03:39:49 0° 73° (ENE) 4,913 11.6 -22.7°
